Pinopolis, SC

6:43 AM EST on February 07, 2016 (GMT -0500)
Moncks Corner

Weather History for KMKS - January, 2014

Change the Weather History Date:

Wednesday, January 22, 2014

  Actual Average (KCHS) Record (KCHS)
Temperature  
Mean Temperature 35 °F 48 °F  
Max Temperature 44 °F 59 °F 80 °F (1999)
Min Temperature 26 °F 38 °F 14 °F (1985)
Degree Days  
Heating Degree Days 30 17  
Month to date heating degree days 374  
Since 1 July heating degree days 1112  
Cooling Degree Days 0 0  
Month to date cooling degree days 0  
Year to date cooling degree days 0  
Moisture  
Dew Point 24 °F    
Average Humidity 63    
Maximum Humidity 86    
Minimum Humidity 42    
Precipitation  
Precipitation 0.00 in 0.12 in 1.77 in (1987)
Month to date precipitation 2.63  
Year to date precipitation 2.63  
Sea Level Pressure  
Sea Level Pressure 30.01 in    
Wind  
Wind Speed 5 mph (NNW)    
Max Wind Speed 10 mph    
Max Gust Speed 24 mph    
Visibility 9 miles    
Events      
T = Trace of Precipitation, MM = Missing Value Source: NWS Daily Summary

Daily Weather History Graph

Daily Weather History Graph

Search for Another Location

Airport or City:

Trip Planner

Search our weather history database for the weather conditions in past years. The results will help you decide how hot, cold, wet, or windy it might be!

Date:

Astronomy

Jan. 22, 2014 Rise Set
Actual Time 7:21 AM EST 5:42 PM EST
Civil Twilight 6:54 AM EST 6:09 PM EST
Nautical Twilight 6:24 AM EST 6:39 PM EST
Astronomical Twilight 5:55 AM EST 7:08 PM EST
Moon 11:51 PM EST (1/22) 10:42 AM EST (1/22)
Length of Visible Light 11h 14m
Length of Day
10h 21m
Waning Gibbous, 65% of the Moon is Illuminated
Jan 22
Waning Gibbous
Jan 24
Last Quarter
Jan 30
New
Feb 6
First Quarter
Feb 14
Full

Hourly Weather History & Observations

Time (EST) Temp. Windchill Dew Point Humidity Pressure Visibility Wind Dir Wind Speed Gust Speed Precip Events Conditions
12:15 AM 42.8 °F 38.0 °F 30.2 °F 61% 29.82 in 10.0 mi NNW 8.1 mph - N/A   Clear
12:35 AM 41.0 °F 38.0 °F 28.4 °F 61% 29.82 in 10.0 mi NW 4.6 mph - N/A   Clear
12:55 AM 41.0 °F - 30.2 °F 65% 29.83 in 10.0 mi Calm Calm - N/A   Clear
1:15 AM 41.0 °F 38.0 °F 28.4 °F 61% 29.84 in 10.0 mi NW 4.6 mph - N/A   Clear
1:35 AM 41.0 °F 35.8 °F 28.4 °F 61% 29.84 in 7.0 mi NNW 8.1 mph - N/A   Clear
1:55 AM 41.0 °F 37.1 °F 26.6 °F 57% 29.85 in 10.0 mi NW 5.8 mph 17.3 mph N/A   Clear
2:15 AM 41.0 °F 38.0 °F 26.6 °F 57% 29.86 in 7.0 mi NNW 4.6 mph - N/A   Scattered Clouds
2:35 AM 39.2 °F 33.6 °F 26.6 °F 61% 29.87 in 10.0 mi NW 8.1 mph - N/A   Scattered Clouds
2:55 AM 39.2 °F 35.0 °F 26.6 °F 61% 29.87 in 7.0 mi NW 5.8 mph - N/A   Scattered Clouds
3:15 AM 39.2 °F 34.2 °F 26.6 °F 61% 29.88 in 10.0 mi NNW 6.9 mph - N/A   Scattered Clouds
3:35 AM 39.2 °F 34.2 °F 26.6 °F 61% 29.89 in 10.0 mi NNW 6.9 mph 24.2 mph N/A   Clear
3:55 AM 39.2 °F 33.0 °F 26.6 °F 61% 29.90 in 10.0 mi North 9.2 mph 18.4 mph N/A   Scattered Clouds
4:15 AM 37.4 °F 30.3 °F 24.8 °F 60% 29.91 in 10.0 mi North 10.4 mph 18.4 mph N/A   Clear
4:35 AM 35.6 °F 28.6 °F 24.8 °F 65% 29.92 in 10.0 mi North 9.2 mph 19.6 mph N/A   Clear
4:55 AM 35.6 °F 30.7 °F 24.8 °F 65% 29.93 in 10.0 mi North 5.8 mph - N/A   Clear
5:15 AM 35.6 °F 29.9 °F 24.8 °F 65% 29.93 in 10.0 mi North 6.9 mph 17.3 mph N/A   Scattered Clouds
5:35 AM 35.6 °F 29.2 °F 24.8 °F 65% 29.93 in 10.0 mi North 8.1 mph - N/A   Mostly Cloudy
5:55 AM 35.6 °F 30.7 °F 24.8 °F 65% 29.94 in 7.0 mi NNW 5.8 mph - N/A   Overcast
6:15 AM 35.6 °F 30.7 °F 24.8 °F 65% 29.95 in 10.0 mi North 5.8 mph - N/A   Overcast
6:35 AM 35.6 °F 30.7 °F 24.8 °F 65% 29.96 in 10.0 mi North 5.8 mph - N/A   Mostly Cloudy
6:55 AM 35.6 °F 32.8 °F 24.8 °F 65% 29.97 in 10.0 mi NNW 3.5 mph - N/A   Overcast
7:15 AM 33.8 °F - 24.8 °F 70% 29.98 in 10.0 mi Calm Calm - N/A   Overcast
7:35 AM 32.0 °F - 24.8 °F 75% 29.99 in 10.0 mi Calm Calm - N/A   Overcast
7:55 AM 30.2 °F - 24.8 °F 80% 30.00 in 7.0 mi Calm Calm - N/A   Scattered Clouds
8:15 AM 30.2 °F - 23.0 °F 75% 30.00 in 10.0 mi Calm Calm - N/A   Scattered Clouds
8:35 AM 32.0 °F - 24.8 °F 75% 30.01 in 7.0 mi Calm Calm - N/A   Scattered Clouds
8:55 AM 33.8 °F 29.6 °F 24.8 °F 70% 30.02 in 7.0 mi WNW 4.6 mph - N/A   Scattered Clouds
9:15 AM 33.8 °F 28.6 °F 24.8 °F 70% 30.03 in 7.0 mi WNW 5.8 mph - N/A   Clear
9:35 AM 35.6 °F 32.8 °F 24.8 °F 65% 30.04 in 7.0 mi WNW 3.5 mph - N/A   Scattered Clouds
9:55 AM 37.4 °F 34.9 °F 24.8 °F 60% 30.04 in 7.0 mi NW 3.5 mph - N/A   Scattered Clouds
10:15 AM 37.4 °F 31.4 °F 24.8 °F 60% 30.05 in 10.0 mi NNW 8.1 mph - N/A   Clear
10:35 AM 37.4 °F 31.4 °F 23.0 °F 56% 30.05 in 10.0 mi NNW 8.1 mph - N/A   Clear
10:55 AM 37.4 °F 32.1 °F 23.0 °F 56% 30.06 in 7.0 mi North 6.9 mph - N/A   Clear
11:15 AM 39.2 °F 33.0 °F 23.0 °F 52% 30.06 in 7.0 mi North 9.2 mph - N/A   Clear
11:35 AM 39.2 °F 34.2 °F 23.0 °F 52% 30.06 in 10.0 mi North 6.9 mph - N/A   Clear
11:55 AM 39.2 °F 34.2 °F 23.0 °F 52% 30.05 in 7.0 mi North 6.9 mph - N/A   Clear
12:15 PM 39.2 °F 34.2 °F 24.8 °F 56% 30.05 in 7.0 mi North 6.9 mph 17.3 mph N/A   Scattered Clouds
12:35 PM 39.2 °F 33.6 °F 23.0 °F 52% 30.04 in 10.0 mi North 8.1 mph - N/A   Scattered Clouds
12:55 PM 37.4 °F 30.8 °F 23.0 °F 56% 30.04 in 7.0 mi North 9.2 mph - N/A   Scattered Clouds
1:15 PM 39.2 °F 32.5 °F 24.8 °F 56% 30.02 in 7.0 mi NNE 10.4 mph - N/A   Scattered Clouds
1:35 PM 41.0 °F 34.7 °F 24.8 °F 53% 30.02 in 5.0 mi North 10.4 mph 16.1 mph N/A   Haze
1:55 PM 41.0 °F 35.2 °F 24.8 °F 53% 30.01 in 10.0 mi North 9.2 mph - N/A   Clear
2:15 PM 42.8 °F 38.0 °F 24.8 °F 49% 30.00 in 7.0 mi North 8.1 mph - N/A   Clear
2:35 PM 42.8 °F 38.6 °F 24.8 °F 49% 30.00 in 7.0 mi North 6.9 mph - N/A   Scattered Clouds
2:55 PM 42.8 °F 39.3 °F 24.8 °F 49% 30.00 in 7.0 mi NNE 5.8 mph - N/A   Clear
3:15 PM 42.8 °F 38.0 °F 23.0 °F 46% 30.01 in 7.0 mi North 8.1 mph - N/A   Clear
3:35 PM 42.8 °F - 23.0 °F 46% 30.01 in 10.0 mi Calm Calm - N/A   Scattered Clouds
3:55 PM 44.6 °F 41.4 °F 23.0 °F 43% 30.01 in 10.0 mi WSW 5.8 mph - N/A   Clear
4:15 PM 42.8 °F 41.1 °F 23.0 °F 46% 30.01 in 7.0 mi WSW 3.5 mph - N/A   Clear
4:35 PM 42.8 °F 39.3 °F 21.2 °F 42% 30.02 in 7.0 mi WSW 5.8 mph - N/A   Clear
4:55 PM 42.8 °F 39.3 °F 21.2 °F 42% 30.03 in 7.0 mi West 5.8 mph - N/A   Clear
5:15 PM 42.8 °F - 21.2 °F 42% 30.04 in 10.0 mi Calm Calm - N/A   Clear
5:35 PM 41.0 °F - 21.2 °F 45% 30.05 in 7.0 mi Calm Calm - N/A   Clear
5:55 PM 39.2 °F - 21.2 °F 49% 30.05 in 7.0 mi Calm Calm - N/A   Clear
6:15 PM 37.4 °F - 21.2 °F 52% 30.06 in 10.0 mi Calm Calm - N/A   Clear
6:35 PM 35.6 °F - 23.0 °F 60% 30.07 in 10.0 mi Calm Calm - N/A   Clear
6:55 PM 33.8 °F - 24.8 °F 70% 30.08 in 10.0 mi Calm Calm - N/A   Clear
7:15 PM 32.0 °F - 24.8 °F 75% 30.08 in 10.0 mi Calm Calm - N/A   Clear
7:35 PM 32.0 °F - 24.8 °F 75% 30.09 in 7.0 mi Calm Calm - N/A   Clear
7:55 PM 32.0 °F - 23.0 °F 69% 30.09 in 10.0 mi Calm Calm - N/A   Clear
8:15 PM 32.0 °F - 23.0 °F 69% 30.10 in 7.0 mi Calm Calm - N/A   Clear
8:35 PM 32.0 °F - 24.8 °F 75% 30.11 in 10.0 mi Calm Calm - N/A   Clear
8:55 PM 30.2 °F - 24.8 °F 80% 30.12 in 10.0 mi Calm Calm - N/A   Clear
9:15 PM 30.2 °F - 23.0 °F 75% 30.13 in 10.0 mi Calm Calm - N/A   Clear
9:35 PM 30.2 °F - 23.0 °F 75% 30.13 in 10.0 mi Calm Calm - N/A   Clear
9:55 PM 28.4 °F - 24.8 °F 86% 30.14 in 7.0 mi Calm Calm - N/A   Clear
10:15 PM 28.4 °F - 23.0 °F 80% 30.14 in 10.0 mi Calm Calm - N/A   Clear
10:35 PM 28.4 °F - 24.8 °F 86% 30.14 in 7.0 mi Calm Calm - N/A   Clear
10:55 PM 28.4 °F - 23.0 °F 80% 30.15 in 10.0 mi Calm Calm - N/A   Clear
11:15 PM 26.6 °F - 23.0 °F 86% 30.15 in 10.0 mi Calm Calm - N/A   Clear
11:35 PM 26.6 °F - 23.0 °F 86% 30.15 in 7.0 mi Calm Calm - N/A   Clear
11:55 PM 26.6 °F - 23.0 °F 86% 30.15 in 10.0 mi Calm Calm - N/A   Clear